map of HLP home
HLP - Airport
Location
City:  Jakarta, Jawa Barat, Indonesia
Name:Halim Perdanakusuma International Airport
ICAO:WIHH
IATA:HLP

Details
Type:Airport (Aerodrome, Airfield)
Use:Public/Civil, Military, International (customs port of entry)
Latitude:6°16'00"S (-6.266607)
Longitude:106°53'28"E (106.891117)
Datum:WGS 1984
Elevation:84 ft (26 m)
Variation:0.66°E (WMM2015 magnetic declination)
-0.02° annual change
Runways:1
Longest:9843 × 148 ft (3000 × 45 m), paved

Time
Time Zone:UTC+7
Local Time:

Weather
METAR:WIHH 232200Z 00000KT 3000 BR SCT020 25/24 Q1010 NOSIG
TAF:WIHH 230500Z 2306/2406 26008KT 6000 SCT018
TEMPO 2308/2310 34010KT 5000 RA FEW016CB SCT017
TEMPO 2311/2314 4000 RA FEW017CB SCT018
BECMG 2401/2403 14005KT 6000 SCT020

Related Locations
Nearby:
Farthest:RON: 12450 mi / 20037 km
Paipa [Juan José Rondón Airport], BOY, CO

Find:

   beyond  
but within

Other Information
Maps:
NOTAMs:
Links:
Sources:

  
flag of Indonesia
flag of Jawa Barat
  

Sectional Chart

Flight Planning
at skyvector.com

Satellite Image

Google Maps Satellite view

 

Copyright © 2004-2017 Karl L. Swartz. All rights reserved.
The Great Circle Mapper name and logo are trademarks of the Great Circle Mapper.
All other trademarks mentioned herein belong to their respective owners.
Please see credits for attibutions and further copyright information.

  Follow gcmap on Facebook Follow gcmap on Twitter Follow gcmap on Google+ GCmap on LinkedIn

hCard Microformat

Geo Microformat